Year,Month,Day,Hour,Minute,Value (Times are PST for temperature in C)
2016,07,22,00,00,23.10
2016,07,22,00,01,23.10
2016,07,22,00,02,23.10
2016,07,22,00,03,23.10
2016,07,22,00,04,23.10
2016,07,22,00,05,23.10
2016,07,22,00,06,23.10
2016,07,22,00,07,23.00
2016,07,22,00,08,23.00
2016,07,22,00,09,23.00
2016,07,22,00,10,23.00
2016,07,22,00,11,23.00
2016,07,22,00,12,22.90
2016,07,22,00,13,22.90
2016,07,22,00,14,22.80
2016,07,22,00,15,22.80
2016,07,22,00,16,22.80
2016,07,22,00,17,22.70
2016,07,22,00,18,22.70
2016,07,22,00,19,22.70
2016,07,22,00,20,22.60
2016,07,22,00,21,22.60
2016,07,22,00,22,22.50
2016,07,22,00,23,22.40
2016,07,22,00,24,22.30
2016,07,22,00,25,22.20
2016,07,22,00,26,22.20
2016,07,22,00,27,22.10
2016,07,22,00,28,22.00
2016,07,22,00,29,22.00
2016,07,22,00,30,21.90
2016,07,22,00,31,21.90
2016,07,22,00,32,21.90
2016,07,22,00,33,21.80
2016,07,22,00,34,21.80
2016,07,22,00,35,21.80
2016,07,22,00,36,21.80
2016,07,22,00,37,21.90
2016,07,22,00,38,21.80
2016,07,22,00,39,21.80
2016,07,22,00,40,21.60
2016,07,22,00,41,21.60
2016,07,22,00,42,21.50
2016,07,22,00,43,21.40
2016,07,22,00,44,21.40
2016,07,22,00,45,21.30
2016,07,22,00,46,21.30
2016,07,22,00,47,21.20
2016,07,22,00,48,21.20
2016,07,22,00,49,21.10
2016,07,22,00,50,21.10
2016,07,22,00,51,21.00
2016,07,22,00,52,20.90
2016,07,22,00,53,20.90
2016,07,22,00,54,20.80
2016,07,22,00,55,20.80
2016,07,22,00,56,20.80
2016,07,22,00,57,20.80
2016,07,22,00,58,20.80
2016,07,22,00,59,20.70
2016,07,22,01,00,20.70
2016,07,22,01,01,20.70
2016,07,22,01,02,20.70
2016,07,22,01,03,20.60
2016,07,22,01,04,20.60
2016,07,22,01,05,20.60
2016,07,22,01,06,20.60
2016,07,22,01,07,20.60
2016,07,22,01,08,20.50
2016,07,22,01,09,20.50
2016,07,22,01,10,20.40
2016,07,22,01,11,20.40
2016,07,22,01,12,20.40
2016,07,22,01,13,20.30
2016,07,22,01,14,20.30
2016,07,22,01,15,20.30
2016,07,22,01,16,20.30
2016,07,22,01,17,20.30
2016,07,22,01,18,20.20
2016,07,22,01,19,20.20
2016,07,22,01,20,20.20
2016,07,22,01,21,20.20
2016,07,22,01,22,20.20
2016,07,22,01,23,20.20
2016,07,22,01,24,20.20
2016,07,22,01,25,20.20
2016,07,22,01,26,20.20
2016,07,22,01,27,20.20
2016,07,22,01,28,20.20
2016,07,22,01,29,20.20
2016,07,22,01,30,20.10
2016,07,22,01,31,20.10
2016,07,22,01,32,20.00
2016,07,22,01,33,20.00
2016,07,22,01,34,19.90
2016,07,22,01,35,19.90
2016,07,22,01,36,19.90
2016,07,22,01,37,19.90
2016,07,22,01,38,19.90
2016,07,22,01,39,19.90
2016,07,22,01,40,19.90
2016,07,22,01,41,19.90
2016,07,22,01,42,19.90
2016,07,22,01,43,19.90
2016,07,22,01,44,19.90
2016,07,22,01,45,19.90
2016,07,22,01,46,20.00
2016,07,22,01,47,20.00
2016,07,22,01,48,20.00
2016,07,22,01,49,20.00
2016,07,22,01,50,20.00
2016,07,22,01,51,20.10
2016,07,22,01,52,20.10
2016,07,22,01,53,20.10
2016,07,22,01,54,20.10
2016,07,22,01,55,20.10
2016,07,22,01,56,20.10
2016,07,22,01,57,20.10
2016,07,22,01,58,20.10
2016,07,22,01,59,20.10
2016,07,22,02,00,20.10
2016,07,22,02,01,20.10
2016,07,22,02,02,20.10
2016,07,22,02,03,20.10
2016,07,22,02,04,20.10
2016,07,22,02,05,20.10
2016,07,22,02,06,20.10
2016,07,22,02,07,20.10
2016,07,22,02,08,20.10
2016,07,22,02,09,20.10
2016,07,22,02,10,20.10
2016,07,22,02,11,20.20
2016,07,22,02,12,20.20
2016,07,22,02,13,20.20
2016,07,22,02,14,20.20
2016,07,22,02,15,20.20
2016,07,22,02,16,20.30
2016,07,22,02,17,20.30
2016,07,22,02,18,20.30
2016,07,22,02,19,20.30
2016,07,22,02,20,20.30
2016,07,22,02,21,20.30
2016,07,22,02,22,20.30
2016,07,22,02,23,20.30
2016,07,22,02,24,20.30
2016,07,22,02,25,20.30
2016,07,22,02,26,20.30
2016,07,22,02,27,20.30
2016,07,22,02,28,20.30
2016,07,22,02,29,20.30
2016,07,22,02,30,20.30
2016,07,22,02,31,20.30
2016,07,22,02,32,20.30
2016,07,22,02,33,20.30
2016,07,22,02,34,20.30
2016,07,22,02,35,20.20
2016,07,22,02,36,20.20
2016,07,22,02,37,20.20
2016,07,22,02,38,20.20
2016,07,22,02,39,20.20
2016,07,22,02,40,20.20
2016,07,22,02,41,20.10
2016,07,22,02,42,20.10
2016,07,22,02,43,20.20
2016,07,22,02,44,20.20
2016,07,22,02,45,20.20
2016,07,22,02,46,20.20
2016,07,22,02,47,20.20
2016,07,22,02,48,20.20
2016,07,22,02,49,20.20
2016,07,22,02,50,20.20
2016,07,22,02,51,20.20
2016,07,22,02,52,20.20
2016,07,22,02,53,20.10
2016,07,22,02,54,20.10
2016,07,22,02,55,20.10
2016,07,22,02,56,20.10
2016,07,22,02,57,20.10
2016,07,22,02,58,20.10
2016,07,22,02,59,20.20
2016,07,22,03,00,20.20
2016,07,22,03,01,20.20
2016,07,22,03,02,20.30
2016,07,22,03,03,20.30
2016,07,22,03,04,20.30
2016,07,22,03,05,20.30
2016,07,22,03,06,20.30
2016,07,22,03,07,20.20
2016,07,22,03,08,20.20
2016,07,22,03,09,20.20
2016,07,22,03,10,20.20
2016,07,22,03,11,20.30
2016,07,22,03,12,20.30
2016,07,22,03,13,20.30
2016,07,22,03,14,20.40
2016,07,22,03,15,20.40
2016,07,22,03,16,20.50
2016,07,22,03,17,20.50
2016,07,22,03,18,20.60
2016,07,22,03,19,20.60
2016,07,22,03,20,20.60
2016,07,22,03,21,20.60
2016,07,22,03,22,20.60
2016,07,22,03,23,20.60
2016,07,22,03,24,20.60
2016,07,22,03,25,20.60
2016,07,22,03,26,20.50
2016,07,22,03,27,20.50
2016,07,22,03,28,20.50
2016,07,22,03,29,20.50
2016,07,22,03,30,20.50
2016,07,22,03,31,20.40
2016,07,22,03,32,20.40
2016,07,22,03,33,20.40
2016,07,22,03,34,20.40
2016,07,22,03,35,20.40
2016,07,22,03,36,20.50
2016,07,22,03,37,20.50
2016,07,22,03,38,20.50
2016,07,22,03,39,20.50
2016,07,22,03,40,20.50
2016,07,22,03,41,20.50
2016,07,22,03,42,20.50
2016,07,22,03,43,20.50
2016,07,22,03,44,20.50
2016,07,22,03,45,20.40
2016,07,22,03,46,20.40
2016,07,22,03,47,20.40
2016,07,22,03,48,20.30
2016,07,22,03,49,20.30
2016,07,22,03,50,20.30
2016,07,22,03,51,20.30
2016,07,22,03,52,20.30
2016,07,22,03,53,20.30
2016,07,22,03,54,20.30
2016,07,22,03,55,20.20
2016,07,22,03,56,20.20
2016,07,22,03,57,20.20
2016,07,22,03,58,20.20
2016,07,22,03,59,20.20
2016,07,22,04,00,20.20
2016,07,22,04,01,20.20
2016,07,22,04,02,20.10
2016,07,22,04,03,20.10
2016,07,22,04,04,20.10
2016,07,22,04,05,20.00
2016,07,22,04,06,20.00
2016,07,22,04,07,20.00
2016,07,22,04,08,20.00
2016,07,22,04,09,20.00
2016,07,22,04,10,20.00
2016,07,22,04,11,20.00
2016,07,22,04,12,20.00
2016,07,22,04,13,20.00
2016,07,22,04,14,20.00
2016,07,22,04,15,20.00
2016,07,22,04,16,20.00
2016,07,22,04,17,20.00
2016,07,22,04,18,20.00
2016,07,22,04,19,20.10
2016,07,22,04,20,20.10
2016,07,22,04,21,20.10
2016,07,22,04,22,20.10
2016,07,22,04,23,20.10
2016,07,22,04,24,20.10
2016,07,22,04,25,20.10
2016,07,22,04,26,20.00
2016,07,22,04,27,20.00
2016,07,22,04,28,20.00
2016,07,22,04,29,20.00
2016,07,22,04,30,20.00
2016,07,22,04,31,20.00
2016,07,22,04,32,20.00
2016,07,22,04,33,19.90
2016,07,22,04,34,19.90
2016,07,22,04,35,19.90
2016,07,22,04,36,19.90
2016,07,22,04,37,19.90
2016,07,22,04,38,19.90
2016,07,22,04,39,19.90
2016,07,22,04,40,19.90
2016,07,22,04,41,19.80
2016,07,22,04,42,19.80
2016,07,22,04,43,19.80
2016,07,22,04,44,19.80
2016,07,22,04,45,19.80
2016,07,22,04,46,19.70
2016,07,22,04,47,19.70
2016,07,22,04,48,19.70
2016,07,22,04,49,19.60
2016,07,22,04,50,19.60
2016,07,22,04,51,19.50
2016,07,22,04,52,19.40
2016,07,22,04,53,19.40
2016,07,22,04,54,19.30
2016,07,22,04,55,19.30
2016,07,22,04,56,19.20
2016,07,22,04,57,19.20
2016,07,22,04,58,19.10
2016,07,22,04,59,19.10
2016,07,22,05,00,19.10
2016,07,22,05,01,19.00
2016,07,22,05,02,19.00
2016,07,22,05,03,19.00
2016,07,22,05,04,19.00
2016,07,22,05,05,18.90
2016,07,22,05,06,18.90
2016,07,22,05,07,18.90
2016,07,22,05,08,18.90
2016,07,22,05,09,18.90
2016,07,22,05,10,18.90
2016,07,22,05,11,18.80
2016,07,22,05,12,18.80
2016,07,22,05,13,18.80
2016,07,22,05,14,18.80
2016,07,22,05,15,18.80
2016,07,22,05,16,18.80
2016,07,22,05,17,18.80
2016,07,22,05,18,18.80
2016,07,22,05,19,18.80
2016,07,22,05,20,18.90
2016,07,22,05,21,18.90
2016,07,22,05,22,18.90
2016,07,22,05,23,18.90
2016,07,22,05,24,18.90
2016,07,22,05,25,18.90
2016,07,22,05,26,18.90
2016,07,22,05,27,18.90
2016,07,22,05,28,18.90
2016,07,22,05,29,18.90
2016,07,22,05,30,18.90
2016,07,22,05,31,18.90
2016,07,22,05,32,18.90
2016,07,22,05,33,19.00
2016,07,22,05,34,19.10
2016,07,22,05,35,19.20
2016,07,22,05,36,19.20
2016,07,22,05,37,19.20
2016,07,22,05,38,19.20
2016,07,22,05,39,19.30
2016,07,22,05,40,19.30
2016,07,22,05,41,19.20
2016,07,22,05,42,19.20
2016,07,22,05,43,19.20
2016,07,22,05,44,19.20
2016,07,22,05,45,19.20
2016,07,22,05,46,19.20
2016,07,22,05,47,19.20
2016,07,22,05,48,19.10
2016,07,22,05,49,19.10
2016,07,22,05,50,19.10
2016,07,22,05,51,19.10
2016,07,22,05,52,19.00
2016,07,22,05,53,19.00
2016,07,22,05,54,18.90
2016,07,22,05,55,18.90
2016,07,22,05,56,18.90
2016,07,22,05,57,18.80
2016,07,22,05,58,18.80
2016,07,22,05,59,18.80
2016,07,22,06,00,18.80
2016,07,22,06,01,18.70
2016,07,22,06,02,18.70
2016,07,22,06,03,18.70
2016,07,22,06,04,18.70
2016,07,22,06,05,18.60
2016,07,22,06,06,18.60
2016,07,22,06,07,18.60
2016,07,22,06,08,18.60
2016,07,22,06,09,18.50
2016,07,22,06,10,18.50
2016,07,22,06,11,18.50
2016,07,22,06,12,18.40
2016,07,22,06,13,18.40
2016,07,22,06,14,18.40
2016,07,22,06,15,18.40
2016,07,22,06,16,18.40
2016,07,22,06,17,18.40
2016,07,22,06,18,18.40
2016,07,22,06,19,18.40
2016,07,22,06,20,18.30
2016,07,22,06,21,18.30
2016,07,22,06,22,18.30
2016,07,22,06,23,18.30
2016,07,22,06,24,18.30
2016,07,22,06,25,18.30
2016,07,22,06,26,18.30
2016,07,22,06,27,18.30
2016,07,22,06,28,18.30
2016,07,22,06,29,18.30
2016,07,22,06,30,18.30
2016,07,22,06,31,18.30
2016,07,22,06,32,18.30
2016,07,22,06,33,18.30
2016,07,22,06,34,18.30
2016,07,22,06,35,18.30
2016,07,22,06,36,18.30
2016,07,22,06,37,18.30
2016,07,22,06,38,18.40
2016,07,22,06,39,18.40
2016,07,22,06,40,18.40
2016,07,22,06,41,18.40
2016,07,22,06,42,18.30
2016,07,22,06,43,18.30
2016,07,22,06,44,18.30
2016,07,22,06,45,18.30
2016,07,22,06,46,18.30
2016,07,22,06,47,18.30
2016,07,22,06,48,18.30
2016,07,22,06,49,18.40
2016,07,22,06,50,18.40
2016,07,22,06,51,18.40
2016,07,22,06,52,18.40
2016,07,22,06,53,18.40
2016,07,22,06,54,18.40
2016,07,22,06,55,18.40
2016,07,22,06,56,18.40
2016,07,22,06,57,18.40
2016,07,22,06,58,18.40
2016,07,22,06,59,18.40
2016,07,22,07,00,18.30
2016,07,22,07,01,18.30
2016,07,22,07,02,18.30
2016,07,22,07,03,18.30
2016,07,22,07,04,18.30
2016,07,22,07,05,18.30
2016,07,22,07,06,18.30
2016,07,22,07,07,18.30
2016,07,22,07,08,18.30
2016,07,22,07,09,18.30
2016,07,22,07,10,18.30
2016,07,22,07,11,18.30
2016,07,22,07,12,18.30
2016,07,22,07,13,18.30
2016,07,22,07,14,18.30
2016,07,22,07,15,18.20
2016,07,22,07,16,18.20
2016,07,22,07,17,18.30
2016,07,22,07,18,18.20
2016,07,22,07,19,18.20
2016,07,22,07,20,18.20
2016,07,22,07,21,18.20
2016,07,22,07,22,18.20
2016,07,22,07,23,18.20
2016,07,22,07,24,18.20
2016,07,22,07,25,18.20
2016,07,22,07,26,18.20
2016,07,22,07,27,18.20
2016,07,22,07,28,18.20
2016,07,22,07,29,18.20
2016,07,22,07,30,18.20
2016,07,22,07,31,18.20
2016,07,22,07,32,18.20
2016,07,22,07,33,18.30
2016,07,22,07,34,18.30
2016,07,22,07,35,18.30
2016,07,22,07,36,18.40
2016,07,22,07,37,18.40
2016,07,22,07,38,18.50
2016,07,22,07,39,18.50
2016,07,22,07,40,18.60
2016,07,22,07,41,18.60
2016,07,22,07,42,18.70
2016,07,22,07,43,18.70
2016,07,22,07,44,18.80
2016,07,22,07,45,18.80
2016,07,22,07,46,18.90
2016,07,22,07,47,19.00
2016,07,22,07,48,19.00
2016,07,22,07,49,19.10
2016,07,22,07,50,19.20
2016,07,22,07,51,19.30
2016,07,22,07,52,19.30
2016,07,22,07,53,19.30
2016,07,22,07,54,19.30
2016,07,22,07,55,19.30
2016,07,22,07,56,19.40
2016,07,22,07,57,19.40
2016,07,22,07,58,19.40
2016,07,22,07,59,19.40
2016,07,22,08,00,19.50
2016,07,22,08,01,19.50
2016,07,22,08,02,19.60
2016,07,22,08,03,19.60
2016,07,22,08,04,19.60
2016,07,22,08,05,19.70
2016,07,22,08,06,19.70
2016,07,22,08,07,19.80
2016,07,22,08,08,19.80
2016,07,22,08,09,19.90
2016,07,22,08,10,19.90
2016,07,22,08,11,19.90
2016,07,22,08,12,19.90
2016,07,22,08,13,19.90
2016,07,22,08,14,20.00
2016,07,22,08,15,20.00
2016,07,22,08,16,20.00
2016,07,22,08,17,20.00
2016,07,22,08,18,20.00
2016,07,22,08,19,20.10
2016,07,22,08,20,20.10
2016,07,22,08,21,20.10
2016,07,22,08,22,20.20
2016,07,22,08,23,20.20
2016,07,22,08,24,20.20
2016,07,22,08,25,20.30
2016,07,22,08,26,20.30
2016,07,22,08,27,20.40
2016,07,22,08,28,20.40
2016,07,22,08,29,20.50
2016,07,22,08,30,20.60
2016,07,22,08,31,20.60
2016,07,22,08,32,20.60
2016,07,22,08,33,20.60
2016,07,22,08,34,20.60
2016,07,22,08,35,20.60
2016,07,22,08,36,20.70
2016,07,22,08,37,20.70
2016,07,22,08,38,20.70
2016,07,22,08,39,20.80
2016,07,22,08,40,20.80
2016,07,22,08,41,20.80
2016,07,22,08,42,20.80
2016,07,22,08,43,20.90
2016,07,22,08,44,20.90
2016,07,22,08,45,21.00
2016,07,22,08,46,21.10
2016,07,22,08,47,21.10
2016,07,22,08,48,21.20
2016,07,22,08,49,21.20
2016,07,22,08,50,21.30
2016,07,22,08,51,21.30
2016,07,22,08,52,21.40
2016,07,22,08,53,21.40
2016,07,22,08,54,21.50
2016,07,22,08,55,21.50
2016,07,22,08,56,21.50
2016,07,22,08,57,21.50
2016,07,22,08,58,21.40
2016,07,22,08,59,21.40
2016,07,22,09,00,21.40
2016,07,22,09,01,21.40
2016,07,22,09,02,21.30
2016,07,22,09,03,21.30
2016,07,22,09,04,21.30
2016,07,22,09,05,21.30
2016,07,22,09,06,21.30
2016,07,22,09,07,21.30
2016,07,22,09,08,21.30
2016,07,22,09,09,21.30
2016,07,22,09,10,21.30
2016,07,22,09,11,21.30
2016,07,22,09,12,21.20
2016,07,22,09,13,21.20
2016,07,22,09,14,21.20
2016,07,22,09,15,21.20
2016,07,22,09,16,21.30
2016,07,22,09,17,21.30
2016,07,22,09,18,21.40
2016,07,22,09,19,21.40
2016,07,22,09,20,21.50
2016,07,22,09,21,21.50
2016,07,22,09,22,21.60
2016,07,22,09,23,21.60
2016,07,22,09,24,21.70
2016,07,22,09,25,21.70
2016,07,22,09,26,21.70
2016,07,22,09,27,21.70
2016,07,22,09,28,21.70
2016,07,22,09,29,21.70
2016,07,22,09,30,21.70
2016,07,22,09,31,21.70
2016,07,22,09,32,21.60
2016,07,22,09,33,21.50
2016,07,22,09,34,21.50
2016,07,22,09,35,21.40
2016,07,22,09,36,21.30
2016,07,22,09,37,21.30
2016,07,22,09,38,21.30
2016,07,22,09,39,21.20
2016,07,22,09,40,21.30
2016,07,22,09,41,21.30
2016,07,22,09,42,21.40
2016,07,22,09,43,21.40
2016,07,22,09,44,21.40
2016,07,22,09,45,21.40
2016,07,22,09,46,21.40
2016,07,22,09,47,21.40
2016,07,22,09,48,21.40
2016,07,22,09,49,21.40
2016,07,22,09,50,21.30
2016,07,22,09,51,21.30
2016,07,22,09,52,21.30
2016,07,22,09,53,21.20
2016,07,22,09,54,21.10
2016,07,22,09,55,20.90
2016,07,22,09,56,20.80
2016,07,22,09,57,20.70
2016,07,22,09,58,20.70
2016,07,22,09,59,20.60
2016,07,22,10,00,20.60
2016,07,22,10,01,20.60
2016,07,22,10,02,20.60
2016,07,22,10,03,20.60
2016,07,22,10,04,20.60
2016,07,22,10,05,20.60
2016,07,22,10,06,20.60
2016,07,22,10,07,20.50
2016,07,22,10,08,20.50
2016,07,22,10,09,20.40
2016,07,22,10,10,20.40
2016,07,22,10,11,20.30
2016,07,22,10,12,20.30
2016,07,22,10,13,20.30
2016,07,22,10,14,20.40
2016,07,22,10,15,20.40
2016,07,22,10,16,20.40
2016,07,22,10,17,20.40
2016,07,22,10,18,20.40
2016,07,22,10,19,20.40
2016,07,22,10,20,20.40
2016,07,22,10,21,20.50
2016,07,22,10,22,20.60
2016,07,22,10,23,20.60
2016,07,22,10,24,20.60
2016,07,22,10,25,20.70
2016,07,22,10,26,20.80
2016,07,22,10,27,20.90
2016,07,22,10,28,21.00
2016,07,22,10,29,21.10
2016,07,22,10,30,21.20
2016,07,22,10,31,21.20
2016,07,22,10,32,21.20
2016,07,22,10,33,21.10
2016,07,22,10,34,21.10
2016,07,22,10,35,21.10
2016,07,22,10,36,21.10
2016,07,22,10,37,21.00
2016,07,22,10,38,21.10
2016,07,22,10,39,21.20
2016,07,22,10,40,21.20
2016,07,22,10,41,21.30
2016,07,22,10,42,21.40
2016,07,22,10,43,21.60
2016,07,22,10,44,21.60
2016,07,22,10,45,21.70
2016,07,22,10,46,21.60
2016,07,22,10,47,21.60
2016,07,22,10,48,21.60
2016,07,22,10,49,21.60
2016,07,22,10,50,21.60
2016,07,22,10,51,21.60
2016,07,22,10,52,21.60
2016,07,22,10,53,21.60
2016,07,22,10,54,21.60
2016,07,22,10,55,21.60
2016,07,22,10,56,21.70
2016,07,22,10,57,21.70
2016,07,22,10,58,21.70
2016,07,22,10,59,21.80
2016,07,22,11,00,21.90
2016,07,22,11,01,22.10
2016,07,22,11,02,22.20
2016,07,22,11,03,22.30
2016,07,22,11,04,22.40
2016,07,22,11,05,22.50
2016,07,22,11,06,22.60
2016,07,22,11,07,22.70
2016,07,22,11,08,22.80
2016,07,22,11,09,22.80
2016,07,22,11,10,23.00
2016,07,22,11,11,23.10
2016,07,22,11,12,23.10
2016,07,22,11,13,23.20
2016,07,22,11,14,23.30
2016,07,22,11,15,23.40
2016,07,22,11,16,23.40
2016,07,22,11,17,23.40
2016,07,22,11,18,23.50
2016,07,22,11,19,23.50
2016,07,22,11,20,23.50
2016,07,22,11,21,23.50
2016,07,22,11,22,23.60
2016,07,22,11,23,23.60
2016,07,22,11,24,23.60
2016,07,22,11,25,23.60
2016,07,22,11,26,23.70
2016,07,22,11,27,23.70
2016,07,22,11,28,23.80
2016,07,22,11,29,23.80
2016,07,22,11,30,23.80
2016,07,22,11,31,23.80
2016,07,22,11,32,23.80
2016,07,22,11,33,23.80
2016,07,22,11,34,23.70
2016,07,22,11,35,23.70
2016,07,22,11,36,23.60
2016,07,22,11,37,23.60
2016,07,22,11,38,23.60
2016,07,22,11,39,23.60
2016,07,22,11,40,23.70
2016,07,22,11,41,23.80
2016,07,22,11,42,23.90
2016,07,22,11,43,24.00
2016,07,22,11,44,23.90
2016,07,22,11,45,23.80
2016,07,22,11,46,23.90
2016,07,22,11,47,24.00
2016,07,22,11,48,24.10
2016,07,22,11,49,24.20
2016,07,22,11,50,24.30
2016,07,22,11,51,24.30
2016,07,22,11,52,24.30
2016,07,22,11,53,24.40
2016,07,22,11,54,24.50
2016,07,22,11,55,24.50
2016,07,22,11,56,24.60
2016,07,22,11,57,24.70
2016,07,22,11,58,24.80
2016,07,22,11,59,24.70
2016,07,22,12,00,24.40
2016,07,22,12,01,24.30
2016,07,22,12,02,24.30
2016,07,22,12,03,24.30
2016,07,22,12,04,24.40
2016,07,22,12,05,24.50
2016,07,22,12,06,24.50
2016,07,22,12,07,24.30
2016,07,22,12,08,24.10
2016,07,22,12,09,24.00
2016,07,22,12,10,23.90
2016,07,22,12,11,23.90
2016,07,22,12,12,24.00
2016,07,22,12,13,24.10
2016,07,22,12,14,24.20
2016,07,22,12,15,24.20
2016,07,22,12,16,24.10
2016,07,22,12,17,24.20
2016,07,22,12,18,24.10
2016,07,22,12,19,24.10
2016,07,22,12,20,24.20
2016,07,22,12,21,24.20
2016,07,22,12,22,24.30
2016,07,22,12,23,24.40
2016,07,22,12,24,24.40
2016,07,22,12,25,24.50
2016,07,22,12,26,24.60
2016,07,22,12,27,24.60
2016,07,22,12,28,24.70
2016,07,22,12,29,24.70
2016,07,22,12,30,24.70
2016,07,22,12,31,24.70
2016,07,22,12,32,24.60
2016,07,22,12,33,24.50
2016,07,22,12,34,24.50
2016,07,22,12,35,24.50
2016,07,22,12,36,24.40
2016,07,22,12,37,24.30
2016,07,22,12,38,24.30
2016,07,22,12,39,24.30
2016,07,22,12,40,24.30
2016,07,22,12,41,24.30
2016,07,22,12,42,24.30
2016,07,22,12,43,24.20
2016,07,22,12,44,24.10
2016,07,22,12,45,24.00
2016,07,22,12,46,23.90
2016,07,22,12,47,23.80
2016,07,22,12,48,23.90
2016,07,22,12,49,24.00
2016,07,22,12,50,24.20
2016,07,22,12,51,24.40
2016,07,22,12,52,24.50
2016,07,22,12,53,24.60
2016,07,22,12,54,24.70
2016,07,22,12,55,24.80
2016,07,22,12,56,24.80
2016,07,22,12,57,24.80
2016,07,22,12,58,24.80
2016,07,22,12,59,24.80
2016,07,22,13,00,24.90
2016,07,22,13,01,25.00
2016,07,22,13,02,25.00
2016,07,22,13,03,25.00
2016,07,22,13,04,25.00
2016,07,22,13,05,24.90
2016,07,22,13,06,24.80
2016,07,22,13,07,24.70
2016,07,22,13,08,24.60
2016,07,22,13,09,24.30
2016,07,22,13,10,24.00
2016,07,22,13,11,23.80
2016,07,22,13,12,23.60
2016,07,22,13,13,23.50
2016,07,22,13,14,23.30
2016,07,22,13,15,23.10
2016,07,22,13,16,23.00
2016,07,22,13,17,22.80
2016,07,22,13,18,22.60
2016,07,22,13,19,22.50
2016,07,22,13,20,22.50
2016,07,22,13,21,22.60
2016,07,22,13,22,22.80
2016,07,22,13,23,23.00
2016,07,22,13,24,23.30
2016,07,22,13,25,23.60
2016,07,22,13,26,23.70
2016,07,22,13,27,23.80
2016,07,22,13,28,23.80
2016,07,22,13,29,23.80
2016,07,22,13,30,23.80
2016,07,22,13,31,23.80
2016,07,22,13,32,23.60
2016,07,22,13,33,23.40
2016,07,22,13,34,23.30
2016,07,22,13,35,23.20
2016,07,22,13,36,23.20
2016,07,22,13,37,23.30
2016,07,22,13,38,23.30
2016,07,22,13,39,23.30
2016,07,22,13,40,23.40
2016,07,22,13,41,23.40
2016,07,22,13,42,23.40
2016,07,22,13,43,23.40
2016,07,22,13,44,23.60
2016,07,22,13,45,23.70
2016,07,22,13,46,24.00
2016,07,22,13,47,24.20
2016,07,22,13,48,24.20
2016,07,22,13,49,24.30
2016,07,22,13,50,24.30
2016,07,22,13,51,24.40
2016,07,22,13,52,24.40
2016,07,22,13,53,24.40
2016,07,22,13,54,24.40
2016,07,22,13,55,24.30
2016,07,22,13,56,24.20
2016,07,22,13,57,24.00
2016,07,22,13,58,24.00
2016,07,22,13,59,23.80
2016,07,22,14,00,23.70
2016,07,22,14,01,23.50
2016,07,22,14,02,23.40
2016,07,22,14,03,23.30
2016,07,22,14,04,23.30
2016,07,22,14,05,23.20
2016,07,22,14,06,23.30
2016,07,22,14,07,23.40
2016,07,22,14,08,23.50
2016,07,22,14,09,23.60
2016,07,22,14,10,23.70
2016,07,22,14,11,23.90
2016,07,22,14,12,23.90
2016,07,22,14,13,23.90
2016,07,22,14,14,24.00
2016,07,22,14,15,24.10
2016,07,22,14,16,24.20
2016,07,22,14,17,24.30
2016,07,22,14,18,24.40
2016,07,22,14,19,24.50
2016,07,22,14,20,24.50
2016,07,22,14,21,24.40
2016,07,22,14,22,24.50
2016,07,22,14,23,24.50
2016,07,22,14,24,24.50
2016,07,22,14,25,24.50
2016,07,22,14,26,24.50
2016,07,22,14,27,24.60
2016,07,22,14,28,24.60
2016,07,22,14,29,24.60
2016,07,22,14,30,24.70
2016,07,22,14,31,24.80
2016,07,22,14,32,24.80
2016,07,22,14,33,24.70
2016,07,22,14,34,24.70
2016,07,22,14,35,24.80
2016,07,22,14,36,24.70
2016,07,22,14,37,24.70
2016,07,22,14,38,24.80
2016,07,22,14,39,24.70
2016,07,22,14,40,24.70
2016,07,22,14,41,24.60
2016,07,22,14,42,24.60
2016,07,22,14,43,24.60
2016,07,22,14,44,24.70
2016,07,22,14,45,24.80
2016,07,22,14,46,24.90
2016,07,22,14,47,25.10
2016,07,22,14,48,25.20
2016,07,22,14,49,25.30
2016,07,22,14,50,25.40
2016,07,22,14,51,25.40
2016,07,22,14,52,25.40
2016,07,22,14,53,25.30
2016,07,22,14,54,25.10
2016,07,22,14,55,24.90
2016,07,22,14,56,24.80
2016,07,22,14,57,24.80
2016,07,22,14,58,24.80
2016,07,22,14,59,24.70
2016,07,22,15,00,24.50
2016,07,22,15,01,24.50
2016,07,22,15,02,24.40
2016,07,22,15,03,24.30
2016,07,22,15,04,24.30
2016,07,22,15,05,24.30
2016,07,22,15,06,24.40
2016,07,22,15,07,24.40
2016,07,22,15,08,24.50
2016,07,22,15,09,24.60
2016,07,22,15,10,24.60
2016,07,22,15,11,24.50
2016,07,22,15,12,24.40
2016,07,22,15,13,24.30
2016,07,22,15,14,24.20
2016,07,22,15,15,24.10
2016,07,22,15,16,24.00
2016,07,22,15,17,23.90
2016,07,22,15,18,23.90
2016,07,22,15,19,23.90
2016,07,22,15,20,23.90
2016,07,22,15,21,24.00
2016,07,22,15,22,24.10
2016,07,22,15,23,24.10
2016,07,22,15,24,24.20
2016,07,22,15,25,24.30
2016,07,22,15,26,24.30
2016,07,22,15,27,24.40
2016,07,22,15,28,24.50
2016,07,22,15,29,24.50
2016,07,22,15,30,24.60
2016,07,22,15,31,24.60
2016,07,22,15,32,24.50
2016,07,22,15,33,24.40
2016,07,22,15,34,24.30
2016,07,22,15,35,24.30
2016,07,22,15,36,24.20
2016,07,22,15,37,24.20
2016,07,22,15,38,24.20
2016,07,22,15,39,24.20
2016,07,22,15,40,24.30
2016,07,22,15,41,24.50
2016,07,22,15,42,24.60
2016,07,22,15,43,24.60
2016,07,22,15,44,24.70
2016,07,22,15,45,24.80
2016,07,22,15,46,24.70
2016,07,22,15,47,24.60
2016,07,22,15,48,24.50
2016,07,22,15,49,24.50
2016,07,22,15,50,24.40
2016,07,22,15,51,24.30
2016,07,22,15,52,24.30
2016,07,22,15,53,24.30
2016,07,22,15,54,24.40
2016,07,22,15,55,24.50
2016,07,22,15,56,24.60
2016,07,22,15,57,24.70
2016,07,22,15,58,24.80
2016,07,22,15,59,24.90
2016,07,22,16,00,25.00
2016,07,22,16,01,25.10
2016,07,22,16,02,25.20
2016,07,22,16,03,25.20
2016,07,22,16,04,25.20
2016,07,22,16,05,25.10
2016,07,22,16,06,25.20
2016,07,22,16,07,25.20
2016,07,22,16,08,25.20
2016,07,22,16,09,25.20
2016,07,22,16,10,25.20
2016,07,22,16,11,25.10
2016,07,22,16,12,25.00
2016,07,22,16,13,24.80
2016,07,22,16,14,24.80
2016,07,22,16,15,24.80
2016,07,22,16,16,24.80
2016,07,22,16,17,24.90
2016,07,22,16,18,24.90
2016,07,22,16,19,25.00
2016,07,22,16,20,25.10
2016,07,22,16,21,25.20
2016,07,22,16,22,25.10
2016,07,22,16,23,25.00
2016,07,22,16,24,25.00
2016,07,22,16,25,25.00
2016,07,22,16,26,25.00
2016,07,22,16,27,25.20
2016,07,22,16,28,25.30
2016,07,22,16,29,25.50
2016,07,22,16,30,25.60
2016,07,22,16,31,25.70
2016,07,22,16,32,25.80
2016,07,22,16,33,25.80
2016,07,22,16,34,25.90
2016,07,22,16,35,25.90
2016,07,22,16,36,25.90
2016,07,22,16,37,25.90
2016,07,22,16,38,25.80
2016,07,22,16,39,25.60
2016,07,22,16,40,25.50
2016,07,22,16,41,25.30
2016,07,22,16,42,25.20
2016,07,22,16,43,25.20
2016,07,22,16,44,25.20
2016,07,22,16,45,25.20
2016,07,22,16,46,25.20
2016,07,22,16,47,25.20
2016,07,22,16,48,25.30
2016,07,22,16,49,25.20
2016,07,22,16,50,25.20
2016,07,22,16,51,25.20
2016,07,22,16,52,25.20
2016,07,22,16,53,25.20
2016,07,22,16,54,25.20
2016,07,22,16,55,25.20
2016,07,22,16,56,25.20
2016,07,22,16,57,25.20
2016,07,22,16,58,25.20
2016,07,22,16,59,25.20
2016,07,22,17,00,25.10
2016,07,22,17,01,25.00
2016,07,22,17,02,24.90
2016,07,22,17,03,24.90
2016,07,22,17,04,24.90
2016,07,22,17,05,24.90
2016,07,22,17,06,24.90
2016,07,22,17,07,24.90
2016,07,22,17,08,24.90
2016,07,22,17,09,24.80
2016,07,22,17,10,24.80
2016,07,22,17,11,24.90
2016,07,22,17,12,24.90
2016,07,22,17,13,24.90
2016,07,22,17,14,24.90
2016,07,22,17,15,25.00
2016,07,22,17,16,25.00
2016,07,22,17,17,24.80
2016,07,22,17,18,24.70
2016,07,22,17,19,24.70